Campbell Airport

Jump to: basic info | weather | frequencies | runways | comments

Related pages: nearby airports | nearby navaids | notams | map

Basic information (top)

Codes: KC81 C81
Location: lon 42.324600, lat -88.074097, elev 788 ft / 240 m msl
Status: small_airport
Scheduled airline service: no
Links: Wikipedia Mobile

Weather (top)

Current conditions for Waukegan Regional Airport 11nm (20km) ENE (rec'd 2014/08/23 02:52Z):

KUGN 230252Z AUTO 00000KT 3SM BR SCT038 SCT050 OVC075 23/22 A2999 RMK AO2 SLP143 T02280217 53011

Airport forecast for Kenosha Regional Airport 18nm (32km) NNE (rec'd 2014/08/22 00:48Z):

TAF KENW 222347Z 2300/2324 09005KT P6SM FEW050 BKN250 
     FM230300 VRB03KT 2SM BR SCT006 BKN150 
     FM230600 VRB03KT 1/2SM FG BKN003 
     FM231400 08006KT 4SM BR BKN008 
     FM231600 08006KT P6SM BKN020 
     FM232000 09008KT P6SM SCT020 SCT250

Frequencies (top)

Verify before use: may be inaccurate or out of date.

A/D: 120.55 MHz (CHICAGO APP/DEP)
UNIC: 122.7 MHz (CTAF/UNICOM)

Runways (top)

06/24: 3,573 x 40 ft (1,089 x 12 m) — other (COP) — not lighted — threshold 24 displaced 301 ft (92 m)

09/27: 3,270 x 40 ft (997 x 12 m) — paved — lighted

Latest comments (top)

My aviation birthplace.: I did my Private Pilot training here. [read]

More... (top)

See also NOTAMs and nearby airports and navaids, or visit the Campbell Airport page at the main OurAirports website..